FW3803 Weather Reports


Display with metric or nautical units.
time (UTC)temp
F
wind
direction
speed
MPH
gust
MPH
rain 1hr
in
rain 24hr
in
rain mn
in
humidity
%
barometer
mb
20260509082056 50 0.0 0.0 0.00 0.00 0.00 89 1023.6
20260509081655 50 0.0 1.0 0.00 0.00 0.00 89 1023.6
20260509081021 50 0.0 0.0 0.00 0.00 0.00 88 1023.6
20260509080516 50 0.0 0.0 0.00 0.00 0.00 88 1023.6
20260509080015 51 0.0 0.0 0.00 0.00 0.00 87 1023.5
20260509075515 51 0.0 0.0 0.00 0.00 0.00 87 1023.5
20260509075015 51 0.0 0.0 0.00 0.00 0.00 87 1023.6
20260509074516 51 0.0 1.0 0.00 0.00 0.00 86 1023.6
20260509074015 51 0.0 0.0 0.00 0.00 0.00 87 1023.6
20260509073515 51 0.0 0.0 0.00 0.00 0.00 87 1023.6
20260509073015 51 0.0 0.0 0.00 0.00 0.00 88 1023.7
20260509072536 51 0.0 1.0 0.00 0.00 0.00 87 1023.7
20260509072015 51 0.0 0.0 0.00 0.00 0.00 87 1023.7
20260509071515 51 0.0 0.0 0.00 0.00 0.00 87 1023.6
20260509071015 51 0.0 0.0 0.00 0.00 0.00 85 1023.5
20260509070535 51 0.0 0.0 0.00 0.00 0.00 85 1023.6
20260509070016 51 0.0 0.0 0.00 0.00 0.00 85 1023.7
20260509065515 52 0.0 0.0 0.00 0.00 0.00 85 1023.9
20260509065015 52 0.0 0.0 0.00 0.00 0.00 85 1023.9
20260509064536 52 0.0 0.0 0.00 0.00 0.00 85 1024.1
20260509064015 52 0.0 0.0 0.00 0.00 0.00 84 1024.2
20260509063515 52 0.0 0.0 0.00 0.00 0.00 84 1024.3
20260509063016 52 0.0 1.0 0.00 0.00 0.00 84 1024.5
20260509062541 52 0.0 1.0 0.00 0.00 0.00 84 1024.6
20260509062016 52 0.0 1.0 0.00 0.00 0.00 83 1024.6
20260509061535 52 0.0 0.0 0.00 0.00 0.00 82 1024.6
20260509061055 52 0.0 1.0 0.00 0.00 0.00 82 1024.7
20260509060515 52 0.0 1.0 0.00 0.00 0.00 81 1024.7
20260509060015 52 0.0 1.0 0.00 0.00 0.00 82 1024.8
20260509055515 52 0.0 1.0 0.00 0.00 0.00 82 1024.8
20260509055015 52 0.0 0.0 0.00 0.00 0.00 82 1024.9
20260509054515 52 0.0 1.0 0.00 0.00 0.00 82 1024.8
20260509054015 52 0.0 1.0 0.00 0.00 0.00 81 1024.8
20260509053515 51 0.0 0.0 0.00 0.00 0.00 81 1024.8
20260509053015 51 0.0 2.0 0.00 0.00 0.00 81 1024.7
20260509052515 51 0.0 0.0 0.00 0.00 0.00 82 1024.6
20260509052016 51 0.0 0.0 0.00 0.00 0.00 82 1024.6
20260509051515 51 0.0 0.0 0.00 0.00 0.00 83 1024.7
20260509051035 51 0.0 1.0 0.00 0.00 0.00 83 1024.7
20260509050515 51 0.0 1.0 0.00 0.00 0.00 82 1024.7
20260509050015 50 0.0 0.0 0.00 0.00 0.00 82 1024.5
20260509045535 50 0.0 0.0 0.00 0.00 0.00 83 1024.6
20260509045015 50 0.0 0.0 0.00 0.00 0.00 82 1024.5
20260509044515 51 0.0 0.0 0.00 0.00 0.00 82 1024.5
20260509044015 51 0.0 0.0 0.00 0.00 0.00 81 1024.5
20260509043515 51 0.0 0.0 0.00 0.00 0.00 80 1024.4
20260509043015 51 0.0 0.0 0.00 0.00 0.00 80 1024.4
20260509042515 51 0.0 0.0 0.00 0.00 0.00 79 1024.4
20260509042035 51 0.0 0.0 0.00 0.00 0.00 79 1024.4
20260509041535 52 0.0 0.0 0.00 0.00 0.00 79 1024.2
20260509041015 52 0.0 0.0 0.00 0.00 0.00 79 1024.3
20260509040515 52 0.0 0.0 0.00 0.00 0.00 79 1024.4
20260509040015 52 0.0 0.0 0.00 0.00 0.00 78 1024.6
20260509035516 52 0.0 0.0 0.00 0.00 0.00 78 1024.6
20260509035016 52 0.0 0.0 0.00 0.00 0.00 78 1024.5
20260509034516 52 0.0 0.0 0.00 0.00 0.00 77 1024.5
20260509034016 53 0.0 0.0 0.00 0.00 0.00 77 1024.4
20260509033516 53 0.0 0.0 0.00 0.00 0.00 78 1024.6
20260509033016 53 0.0 0.0 0.00 0.00 0.00 79 1024.6
20260509032516 53 0.0 0.0 0.00 0.00 0.00 78 1024.5
20260509032016 53 0.0 0.0 0.00 0.00 0.00 78 1024.5
20260509031536 53 0.0 1.0 0.00 0.00 0.00 79 1024.5
20260509031016 53 0.0 0.0 0.00 0.00 0.00 79 1024.6
20260509030536 53 0.0 0.0 0.00 0.00 0.00 78 1024.6
20260509030016 53 0.0 0.0 0.00 0.00 0.00 77 1024.8
20260509025516 53 0.0 0.0 0.00 0.00 0.00 76 1024.8
20260509025016 53 0.0 0.0 0.00 0.00 0.00 77 1024.8
20260509024516 53 0.0 0.0 0.00 0.00 0.00 76 1024.7
20260509024016 54 0.0 0.0 0.00 0.00 0.00 76 1024.8
20260509023516 54 0.0 0.0 0.00 0.00 0.00 76 1024.9
20260509023016 54 0.0 0.0 0.00 0.00 0.00 76 1024.8
20260509022516 54 0.0 0.0 0.00 0.00 0.00 78 1024.8
20260509022016 54 0.0 0.0 0.00 0.00 0.00 78 1024.8
20260509021516 53 0.0 0.0 0.00 0.00 0.00 74 1024.8
20260509021036 54 0.0 1.0 0.00 0.00 0.00 73 1025.0
20260509020516 54 0.0 1.0 0.00 0.00 0.00 73 1024.8
20260509020016 54 0.0 1.0 0.00 0.00 0.00 74 1024.8
20260509015536 54 0.0 1.0 0.00 0.00 0.00 74 1024.8
20260509015016 54 0.0 1.0 0.00 0.00 0.00 72 1024.5
20260509014516 54 0.0 0.0 0.00 0.00 0.00 71 1024.8
20260509014016 54 0.0 0.0 0.00 0.00 0.00 69 1024.7
20260509013516 55 0.0 0.0 0.00 0.00 0.00 70 1024.7
20260509013016 55 0.0 1.0 0.00 0.00 0.00 70 1024.5
20260509012516 55 0.0 0.0 0.00 0.00 0.00 69 1024.5
20260509012036 55 0.0 0.0 0.00 0.00 0.00 68 1024.4
20260509011536 56 0.0 0.0 0.00 0.00 0.00 67 1024.2
20260509011016 56 0.0 0.0 0.00 0.00 0.00 65 1024.2
20260509010516 56 0.0 0.0 0.00 0.00 0.00 63 1024.2
20260509010056 56 0.0 0.0 0.00 0.00 0.00 63 1024.2
20260509005556 57 0.0 1.0 0.00 0.00 0.00 62 1024.3
20260509005016 57 0.0 0.0 0.00 0.00 0.00 61 1024.1
20260509004516 57 0.0 1.0 0.00 0.00 0.00 61 1024.2
20260509004016 58 0.0 1.0 0.00 0.00 0.00 60 1024.2
20260509003516 58 0.0 0.0 0.00 0.00 0.00 60 1024.2
20260509003056 59 0.0 0.0 0.00 0.00 0.00 60 1024.2
20260509002516 59 0.0 0.0 0.00 0.00 0.00 59 1024.1
20260509002016 60 0.0 0.0 0.00 0.00 0.00 56 1024.1
20260509001516 60 0.0 0.0 0.00 0.00 0.00 55 1024.0
20260509001017 61 0.0 0.0 0.00 0.00 0.00 54 1023.8
20260509000516 61 0.0 0.0 0.00 0.00 0.00 54 1024.0
20260509000036 62 0.0 0.0 0.00 0.00 0.00 52 1024.0
20260508235516 62 0.0 0.0 0.00 0.00 0.00 50 1024.0
20260508235016 63 0.0 0.0 0.00 0.00 0.00 49 1024.1
20260508234536 63 0.0 0.0 0.00 0.00 0.00 49 1024.0
20260508234016 63 0.0 0.0 0.00 0.00 0.00 45 1023.9
20260508233516 64 0.0 1.0 0.00 0.00 0.00 45 1024.0
20260508233016 64 0.0 2.0 0.00 0.00 0.00 45 1023.8
20260508232516 64 0.0 1.0 0.00 0.00 0.00 46 1023.7
20260508232016 65 0.0 0.0 0.00 0.00 0.00 47 1023.6
20260508231516 65 0.0 2.0 0.00 0.00 0.00 47 1023.5
20260508231016 65 0.0 1.0 0.00 0.00 0.00 49 1023.6
20260508230516 65 0.0 2.0 0.00 0.00 0.00 46 1023.5
20260508230016 66 0.0 1.0 0.00 0.00 0.00 46 1023.5
20260508225516 66 0.0 1.0 0.00 0.00 0.00 46 1023.5
20260508225016 66 135 1.0 3.0 0.00 0.00 0.00 45 1023.6
20260508224516 66 0.0 3.0 0.00 0.00 0.00 43 1023.5
20260508224016 66 0.0 3.0 0.00 0.00 0.00 42 1023.4
20260508223536 66 0.0 1.0 0.00 0.00 0.00 43 1023.5
20260508223016 66 0.0 2.0 0.00 0.00 0.00 46 1023.5
20260508222516 67 203 1.0 3.0 0.00 0.00 0.00 42 1023.5
20260508222016 67 0.0 2.0 0.00 0.00 0.00 50 1023.6
20260508221516 67 0.0 1.0 0.00 0.00 0.00 43 1023.6
20260508221016 67 113 1.0 5.0 0.00 0.00 0.00 40 1023.6
20260508220516 67 113 1.0 3.0 0.00 0.00 0.00 44 1023.7
20260508220016 67 113 1.0 5.0 0.00 0.00 0.00 40 1023.7
20260508215516 67 135 1.0 3.0 0.00 0.00 0.00 40 1023.7
20260508215016 67 135 1.0 5.0 0.00 0.00 0.00 40 1023.7
20260508214516 67 0.0 3.0 0.00 0.00 0.00 43 1023.7
20260508214016 67 0.0 1.0 0.00 0.00 0.00 43 1023.6
20260508213536 67 0.0 3.0 0.00 0.00 0.00 42 1023.7
20260508213016 67 0.0 2.0 0.00 0.00 0.00 41 1023.8
20260508212516 68 0.0 11.0 0.00 0.00 0.00 44 1023.7
20260508212036 68 135 2.0 11.0 0.00 0.01 0.00 37 1023.6
20260508211516 68 135 1.0 6.0 0.00 0.01 0.00 40 1023.7
20260508211016 68 135 1.0 4.0 0.00 0.01 0.00 41 1023.7
20260508210516 68 135 1.0 4.0 0.00 0.01 0.00 37 1023.7
20260508210036 68 338 1.0 4.0 0.00 0.01 0.00 40 1023.8
20260508205516 68 338 1.0 2.0 0.00 0.01 0.00 44 1023.8
20260508205056 68 0.0 1.0 0.00 0.01 0.00 48 1024.0
20260508204536 68 135 1.0 3.0 0.00 0.01 0.00 42 1024.0
20260508204016 68 0.0 2.0 0.00 0.01 0.00 44 1023.9
20260508203516 68 0.0 3.0 0.00 0.01 0.00 46 1024.0
20260508203016 68 135 1.0 7.0 0.00 0.01 0.00 36 1024.1
20260508202516 68 158 1.0 6.0 0.00 0.01 0.00 38 1024.1
20260508202016 68 135 1.0 4.0 0.00 0.01 0.00 37 1024.2
20260508201516 68 113 1.0 3.0 0.00 0.01 0.00 37 1024.0
20260508201016 68 293 1.0 2.0 0.00 0.01 0.00 43 1024.1
20260508200516 68 0 1.0 6.0 0.00 0.01 0.00 41 1024.1
20260508200016 67 0.0 4.0 0.00 0.01 0.00 38 1024.1
20260508195516 67 338 1.0 2.0 0.00 0.01 0.00 42 1024.1
20260508195016 67 113 1.0 6.0 0.00 0.01 0.00 40 1024.1
20260508194516 67 0.0 5.0 0.00 0.01 0.00 44 1024.2
20260508194016 67 113 1.0 4.0 0.00 0.01 0.00 36 1024.2
20260508193516 67 293 1.0 2.0 0.00 0.01 0.00 39 1024.3
20260508193036 67 0.0 4.0 0.00 0.01 0.00 39 1024.5
20260508192536 67 0.0 2.0 0.00 0.01 0.00 40 1024.6
20260508192016 67 0.0 1.0 0.00 0.01 0.00 45 1024.6
20260508191516 67 0.0 1.0 0.00 0.01 0.00 39 1024.8
20260508191016 68 113 1.0 5.0 0.00 0.01 0.00 42 1025.2
20260508190536 67 293 1.0 2.0 0.00 0.01 0.00 39 1025.2
20260508190036 68 135 2.0 5.0 0.00 0.01 0.00 38 1025.3
20260508185536 67 338 1.0 6.0 0.00 0.01 0.00 42 1025.3
20260508185036 67 135 1.0 3.0 0.00 0.01 0.00 41 1025.3
20260508184516 67 338 1.0 6.0 0.00 0.01 0.00 38 1025.5
20260508184016 67 270 1.0 3.0 0.00 0.01 0.00 43 1025.5
20260508183536 67 0.0 1.0 0.00 0.01 0.00 42 1025.5
20260508183016 67 338 1.0 4.0 0.00 0.01 0.00 39 1025.4
20260508182516 67 0.0 1.0 0.00 0.01 0.00 41 1025.6
20260508182016 67 23 1.0 2.0 0.00 0.01 0.00 41 1025.5
20260508181516 67 0.0 4.0 0.00 0.01 0.00 40 1025.7
20260508181016 67 135 1.0 5.0 0.00 0.01 0.00 45 1025.8
20260508180516 67 135 1.0 4.0 0.00 0.01 0.00 37 1025.9
20260508180016 67 113 1.0 4.0 0.00 0.01 0.00 37 1025.9
20260508175536 67 0.0 3.0 0.00 0.01 0.00 39 1026.1
20260508175016 67 113 1.0 3.0 0.00 0.01 0.00 38 1026.3
20260508174515 67 135 2.0 3.0 0.00 0.01 0.00 41 1026.2
20260508174016 67 0.0 1.0 0.00 0.01 0.00 37 1026.2
20260508173516 67 135 1.0 5.0 0.00 0.01 0.00 39 1026.3
20260508173016 67 248 1.0 3.0 0.00 0.01 0.00 43 1026.4
20260508172536 67 135 1.0 3.0 0.00 0.01 0.00 40 1026.4
20260508172016 67 135 2.0 5.0 0.00 0.01 0.00 44 1026.5
20260508171515 67 135 1.0 3.0 0.00 0.01 0.00 45 1026.7
20260508171016 67 270 1.0 3.0 0.00 0.01 0.00 46 1026.8
20260508170536 67 135 2.0 6.0 0.00 0.02 0.00 39 1026.9
20260508170016 67 135 1.0 3.0 0.00 0.02 0.00 39 1027.0
20260508165516 67 135 1.0 5.0 0.00 0.02 0.00 37 1027.1
20260508165036 67 0.0 1.0 0.00 0.02 0.00 38 1027.1
20260508164516 67 135 1.0 7.0 0.00 0.02 0.00 47 1027.2
20260508164016 67 135 2.0 7.0 0.00 0.02 0.00 36 1027.3
20260508163516 68 135 1.0 4.0 0.00 0.02 0.00 38 1027.3
20260508163016 67 135 1.0 4.0 0.00 0.02 0.00 36 1027.4
20260508162516 67 338 1.0 3.0 0.00 0.02 0.00 39 1027.4
20260508162016 67 135 1.0 2.0 0.00 0.02 0.00 40 1027.6
20260508161516 66 225 1.0 3.0 0.00 0.02 0.00 39 1027.6
20260508161015 66 0.0 2.0 0.00 0.02 0.00 33 1027.6
20260508160536 66 0.0 1.0 0.00 0.02 0.00 36 1027.6
20260508160037 66 0.0 1.0 0.00 0.02 0.00 43 1027.6
20260508155516 66 0.0 1.0 0.00 0.02 0.00 46 1027.8
20260508155015 66 0.0 1.0 0.00 0.02 0.00 39 1027.8
20260508154516 67 0.0 1.0 0.00 0.02 0.00 37 1027.9
20260508154015 67 0.0 1.0 0.00 0.02 0.00 43 1027.9
20260508153536 67 0.0 1.0 0.00 0.02 0.00 38 1027.9
20260508153036 66 0.0 1.0 0.00 0.02 0.00 37 1027.9
20260508152516 65 158 1.0 3.0 0.00 0.02 0.00 38 1028.0
20260508152016 65 158 2.0 5.0 0.00 0.02 0.00 44 1028.1
20260508151516 65 135 1.0 3.0 0.00 0.02 0.00 40 1028.0
20260508151016 64 0.0 1.0 0.00 0.02 0.00 47 1028.1
20260508150516 64 0.0 1.0 0.00 0.02 0.00 46 1028.1
20260508150056 64 0.0 1.0 0.00 0.02 0.00 45 1028.1
20260508145516 65 0.0 1.0 0.00 0.02 0.00 44 1028.1
20260508145019 65 135 1.0 3.0 0.00 0.02 0.00 50 1028.1
20260508144536 65 135 1.0 3.0 0.00 0.02 0.00 44 1028.1
20260508144015 64 0.0 1.0 0.00 0.02 0.00 50 1028.0
20260508143535 64 158 1.0 4.0 0.00 0.02 0.00 52 1028.0
20260508143016 64 135 1.0 4.0 0.00 0.02 0.00 54 1027.9
20260508142516 63 0.0 1.0 0.00 0.02 0.00 63 1027.9
20260508142016 62 0.0 2.0 0.00 0.02 0.00 54 1027.9
20260508141516 62 0.0 1.0 0.00 0.02 0.00 56 1027.9
20260508141016 62 0.0 1.0 0.00 0.02 0.00 60 1027.9
20260508140515 61 0.0 2.0 0.00 0.02 0.00 57 1027.8
20260508140016 61 0.0 1.0 0.00 0.02 0.00 61 1027.8
20260508135515 61 0.0 1.0 0.00 0.02 0.00 68 1027.9
20260508135036 61 0.0 2.0 0.00 0.02 0.00 69 1027.9
20260508134516 60 0.0 2.0 0.00 0.02 0.00 70 1027.9
20260508134020 59 0.0 1.0 0.00 0.02 0.00 78 1027.9
20260508133516 59 0.0 2.0 0.00 0.02 0.00 75 1027.9
20260508133016 58 0.0 1.0 0.00 0.02 0.00 78 1027.9
20260508132516 58 0.0 1.0 0.00 0.02 0.00 76 1028.0
20260508132016 58 0.0 0.0 0.00 0.02 0.00 80 1027.9
20260508131516 57 0.0 1.0 0.00 0.02 0.00 78 1027.9
20260508131016 57 0.0 1.0 0.00 0.02 0.00 84 1027.9
20260508130515 56 0.0 1.0 0.00 0.02 0.00 84 1027.8
20260508130015 55 0.0 1.0 0.00 0.02 0.00 88 1027.8
20260508125516 54 0.0 1.0 0.00 0.02 0.00 91 1027.7
20260508125016 53 0.0 1.0 0.00 0.02 0.00 90 1027.7
20260508124516 52 0.0 1.0 0.00 0.02 0.00 93 1027.7
20260508124015 51 0.0 1.0 0.00 0.02 0.00 95 1027.6
20260508123516 50 0.0 0.0 0.00 0.02 0.00 96 1027.5
20260508123016 50 0.0 0.0 0.00 0.02 0.00 98 1027.4
20260508122516 49 0.0 0.0 0.00 0.02 0.00 98 1027.3
20260508122016 48 0.0 0.0 0.00 0.02 0.00 98 1027.3
20260508121516 48 0.0 0.0 0.00 0.02 0.00 98 1027.3
20260508121016 47 0.0 0.0 0.00 0.02 0.00 98 1027.2
20260508120516 46 0.0 0.0 0.00 0.02 0.00 97 1027.2
20260508120016 45 0.0 0.0 0.00 0.02 0.00 97 1027.0
20260508115516 44 0.0 0.0 0.00 0.02 0.00 97 1027.0
20260508115015 44 0.0 0.0 0.00 0.02 0.00 97 1026.9
20260508114515 43 0.0 0.0 0.00 0.02 0.00 97 1026.8
20260508114015 43 0.0 0.0 0.00 0.02 0.00 97 1026.7
20260508113515 42 0.0 0.0 0.00 0.02 0.00 97 1026.7
20260508113036 42 0.0 0.0 0.00 0.02 0.00 97 1026.6
20260508112516 42 0.0 0.0 0.00 0.02 0.00 97 1026.5
20260508112036 41 0.0 0.0 0.00 0.02 0.00 96 1026.3
20260508111515 41 0.0 0.0 0.00 0.02 0.00 96 1026.2
20260508111016 41 0.0 0.0 0.00 0.02 0.00 96 1026.2
20260508110516 41 0.0 0.0 0.00 0.02 0.00 96 1026.2
20260508110015 40 0.0 0.0 0.00 0.03 0.00 96 1026.0
20260508105515 40 0.0 0.0 0.00 0.03 0.00 96 1026.0
20260508105016 40 0.0 0.0 0.00 0.03 0.00 96 1025.8
20260508104515 40 0.0 0.0 0.00 0.03 0.00 96 1025.7
20260508104016 40 0.0 0.0 0.00 0.04 0.00 96 1025.7
20260508103516 40 0.0 0.0 0.00 0.04 0.00 96 1025.5
20260508103036 40 0.0 0.0 0.00 0.08 0.00 95 1025.5
20260508102515 40 0.0 0.0 0.00 0.14 0.00 95 1025.4
20260508102016 40 0.0 0.0 0.00 0.19 0.00 95 1025.4
20260508101515 40 0.0 0.0 0.00 0.23 0.00 96 1025.2
20260508101056 40 0.0 0.0 0.00 0.26 0.00 95 1025.2
20260508100515 40 0.0 0.0 0.00 0.33 0.00 95 1025.2
20260508100015 40 0.0 0.0 0.00 0.41 0.00 95 1025.1
20260508095521 40 0.0 0.0 0.00 0.54 0.00 95 1025.1
20260508095015 40 0.0 0.0 0.00 0.61 0.00 95 1025.0
20260508094516 41 0.0 0.0 0.00 0.72 0.00 95 1025.0
20260508094015 41 0.0 0.0 0.00 0.76 0.00 95 1024.9
20260508093556 41 0.0 0.0 0.00 0.90 0.00 95 1024.9
20260508093015 41 0.0 0.0 0.00 1.03 0.00 95 1024.9
20260508092516 41 0.0 0.0 0.00 1.18 0.00 95 1024.9
20260508092035 41 0.0 0.0 0.00 1.20 0.00 95 1024.8
20260508091515 41 0.0 0.0 0.00 1.22 0.00 95 1024.7
20260508091035 41 0.0 0.0 0.00 1.23 0.00 95 1024.6
20260508090536 41 0.0 0.0 0.00 1.23 0.00 95 1024.5
20260508090035 41 0.0 0.0 0.00 1.23 0.00 95 1024.5
20260508085536 42 0.0 0.0 0.00 1.24 0.00 95 1024.5
20260508085015 42 0.0 0.0 0.00 1.24 0.00 95 1024.5
20260508084515 42 0.0 0.0 0.00 1.24 0.00 95 1024.4
20260508084015 42 0.0 0.0 0.00 1.24 0.00 95 1024.5
20260508083515 42 0.0 0.0 0.00 1.24 0.00 95 1024.3
20260508083036 42 0.0 0.0 0.00 1.24 0.00 95 1024.2
20260508082515 42 0.0 0.0 0.00 1.24 0.00 95 1024.2